Find Starlink 34853

NORAD ID: 65892 Int'l Des: 2025-224 Owner: SPXS Country: US Constellation: starlink operational
LEOCIRCULAR

Live Position

Loading 3D Globe...

About Starlink 34853

Description loading...

Upcoming Passes

Passes for default location (London). Set your location on the main map for personalized predictions.

Altitude History

Loading altitude history...

Two-Line Element Set

1 65892U 25224L 26106.49776800 .00010060 00000-0 35133-3 0 9996
2 65892 53.1582 195.6819 0001217 99.4463 260.6676 15.30200489 30593
Epoch: Apr 16, 2026 • Age: 9 hours

Current Status

Altitude 491.1 km
Velocity 7.62 km/s
Sub-Earth Point -44.73°S, 14.95°W
Launch Date Oct 7, 2025
Age 0.5 years
Type internet

Technical Details

Classification Payload
Mass 575.00 kg
Dry Mass 530.00 kg
Total Mass 575.00 kg
Length 0.30 m
Diameter 4.10 m
Span 29.00 m
Shape Box + pan
Manufacturer SPXS
Bus Type Starlink V2MO
Phase Status In Orbit
Owner/State SPXS/US

Most Searched